Location: Busendorf
(50.0781°N, 10.8645°E)
Time: 07:21:56
(UTC+00:00)

Daily predictions for brighter satellites

Satellite Brightness Start Highest point End
(mag) Time Altitude Azimuth Time Altitude Azimuth Time Altitude Azimuth
Cosmos 389 Rocket 2.6 19:16:19 10° N 19:19:42 53° ENE 19:23:05 10° SSE
Cosmos 1812 3.0 19:17:51 10° N 19:21:36 49° ENE 19:25:20 10° SSE
Cosmos 1727 Rocket 4.1 19:15:16 10° N 19:21:41 87° E 19:28:02 10° S
SPOT 3 Rocket 3.6 19:17:05 10° SSE 19:22:18 80° ENE 19:27:31 10° NNW
Cosmos 2251 Rocket 3.5 19:18:59 10° SSW 19:24:14 84° ESE 19:29:35 10° NNE
Cosmos 1656 3.7 19:21:10 10° NNW 19:26:39 85° WSW 19:32:12 10° SSE
Cosmos 1707 Rocket 4.0 19:26:51 10° N 19:31:02 43° ENE 19:35:10 10° SSE
Cosmos 220 Rocket 3.9 19:27:01 10° NNW 19:31:15 75° ENE 19:35:28 10° SSE
Cosmos 1633 3.9 19:28:29 10° SSW 19:31:52 42° WNW 19:35:15 10° N
IRIDIUM 104 4.4 19:27:21 10° S 19:32:30 65° E 19:37:41 10° N
Cosmos 972 Rocket 4.3 19:28:02 10° NNW 19:33:03 64° WSW 19:37:52 10° S
Resurs 01 Rocket 1.7 19:29:00 10° SSE 19:33:23 72° ENE 19:37:49 10° N
Cosmos 1441 Rocket 3.3 19:35:20 10° S 19:39:02 52° E 19:42:43 10° NNE
IRIDIUM 114 4.3 19:36:26 10° S 19:41:38 77° E 19:46:53 10° N
Cosmos 2360 4.4 19:36:19 10° NNW 19:42:02 62° NE 19:47:32 11° SE
Cosmos 614 Rocket 4.1 19:37:43 10° S 19:42:44 55° ESE 19:47:50 10° NNE
IGS 5A 4.0 19:41:09 10° SE 19:45:03 43° ENE 19:49:00 10° N
Cosmos 1900 4.3 19:41:06 10° SSW 19:46:03 83° SE 19:51:08 10° NE
USA 267 3.4 19:40:56 10° ENE 19:47:20 54° SE 19:53:43 10° SW
GP-B 3.9 19:45:27 10° NNE 19:49:31 34° E 19:53:14 12° SSE
IRIDIUM 103 4.4 19:45:34 10° S 19:50:47 89° W 19:56:03 10° N
Cosmos 1821 Rocket 4.0 19:46:55 10° S 19:53:01 74° E 19:59:15 10° NNE
Shenzhou-11 Module 3.5 19:53:38 10° SW 19:54:56 14° S 19:55:30 13° S
Cosmos 921 Rocket 4.2 19:51:21 10° N 19:55:02 28° ENE 19:58:03 13° ESE
COSMOS 2406 3.2 19:49:23 10° SSW 19:55:08 77° ESE 20:00:53 10° NNE
CZ-2C R/B 3.9 19:50:49 10° NNE 19:55:29 81° WNW 20:00:03 10° SSW
SL-16 R/B 3.7 19:52:48 10° NNW 19:57:29 25° NE 20:02:08 10° E
Cosmos 1862 Rocket 4.2 19:53:17 10° N 19:57:34 42° ENE 20:01:01 14° SE
Intercosmos 25 3.6 19:52:44 10° NNW 19:57:35 75° W 20:00:59 10° S
ERS-1 Rocket 3.7 19:56:08 13° SE 20:00:09 39° ENE 20:04:48 10° N
Lacrosse 5 2.7 19:56:03 10° WNW 20:00:57 46° NNE 20:05:50 10° E
Cosmos 2369 3.8 19:57:07 10° NNW 20:02:53 86° WSW 20:08:05 13° SSE
Cosmos 1862 3.9 20:00:20 10° SSW 20:04:21 61° WNW 20:08:23 10° N
Sich 1 3.1 20:00:47 10° S 20:05:13 87° E 20:09:42 10° N
Cosmos 1818 4.0 20:02:16 10° NW 20:07:39 59° WSW 20:12:24 13° SSE
BREEZE-M DEB (TANK) 1.5 20:05:49 10° W 20:08:44 74° S 20:09:54 20° E
Cosmos 2082 Rocket 2.5 20:04:56 10° S 20:10:18 45° ESE 20:15:41 10° NE
Cosmos 2278 3.7 20:06:26 10° NNW 20:12:11 79° ENE 20:16:44 17° SSE
Cosmos 2123 Rocket 4.0 20:06:01 10° N 20:12:14 76° E 20:18:06 12° SSE
Meteor 2-20 4.5 20:07:49 10° N 20:14:02 88° ENE 20:20:08 10° S
Spot 2 Rocket 3.5 20:11:25 12° SSE 20:16:05 87° ENE 20:21:14 10° NNW
Cosmos 1535 Rocket 4.5 20:10:05 10° S 20:16:09 65° E 20:22:12 10° NNE
Meteor 1-4 Rocket 2.4 20:16:30 10° NNW 20:20:01 88° W 20:22:26 19° S
Cosmos 2322 Rocket 3.5 20:15:08 10° NNW 20:20:03 29° NE 20:24:25 12° E
Cosmos 1184 Rocket 3.2 20:21:01 22° SSE 20:22:47 44° E 20:25:57 10° NNE
CARTOSAT-1 3.8 20:20:05 20° SE 20:22:54 54° ENE 20:27:09 10° N
CZ-2C R/B 4.3 20:18:19 10° N 20:23:00 35° WNW 20:27:41 10° SW
Cosmos 1190 Rocket 4.0 20:17:49 10° SSW 20:23:03 72° ESE 20:28:22 10° NNE
USA 234 3.3 20:18:46 17° SE 20:24:04 77° SW 20:30:39 10° WNW
Terra 2.6 20:21:08 19° SE 20:24:05 39° ENE 20:28:30 10° N
Cosmos 407 Rocket 3.5 20:20:40 10° SSW 20:26:00 89° ESE 20:31:20 10° NNE
Cosmos 1933 Rocket 4.3 20:24:16 21° SE 20:26:27 34° E 20:30:27 10° NNE
Cosmos 1605 Rocket 4.1 20:21:08 13° SSE 20:26:29 53° E 20:32:23 10° NNE
Cosmos 1666 Rocket 3.5 20:22:30 10° S 20:26:50 85° WNW 20:31:12 10° N
Cosmos 1238 Rocket 2.9 20:28:02 29° ESE 20:28:42 32° E 20:31:24 10° NNE
Okean 1 4.0 20:25:44 10° N 20:29:34 39° ENE 20:31:27 24° SE
Meteor 1-27 Rocket 4.4 20:24:51 10° NNW 20:30:39 58° W 20:36:26 10° S
Cosmos 1437 Rocket 3.8 20:30:38 10° N 20:34:02 30° ENE 20:35:27 23° ESE
Cosmos 2360 Rocket 3.9 20:29:34 10° NNW 20:34:04 23° NE 20:38:32 10° E
CZ-4B DEB 4.3 20:35:36 29° SSE 20:37:12 80° ENE 20:40:33 10° N
ERBS 4.1 20:35:16 10° W 20:38:19 32° NNW 20:41:21 10° NE
SPOT 5 2.6 20:35:54 24° SSE 20:38:23 66° ENE 20:42:43 10° N
USA 238 DEB 3.9 20:32:49 10° S 20:38:59 43° ESE 20:45:26 10° NE
Meteor 1-19 Rocket 4.4 20:33:47 10° N 20:39:06 52° ENE 20:42:13 24° SE
USA 238 3.9 20:32:57 10° S 20:39:06 43° ESE 20:45:31 10° NE
Cosmos 1980 Rocket 2.3 20:37:39 10° NNW 20:43:20 72° WSW 20:47:05 22° SSE
SPOT 1/Viking Rocket 3.8 20:39:53 16° S 20:44:00 69° WSW 20:49:15 10° NNW
Cosmos 1703 Rocket 4.0 20:41:03 10° N 20:45:16 46° ENE 20:47:06 29° SE
Cosmos 2242 Rocket 3.7 20:40:54 10° N 20:45:20 62° ENE 20:47:29 29° SSE
Cosmos 1763 Rocket 3.9 20:43:01 10° NNW 20:48:16 54° ENE 20:51:08 26° SE
SL-4 R/B 1.8 20:45:08 10° SW 20:48:55 53° SSE 20:51:35 17° E
Genesis I 3.4 20:45:18 10° NW 20:49:08 58° SW 20:50:44 31° SSE
BREEZE-M DEB (TANK) 2.7 20:46:39 10° W 20:49:37 83° S 20:58:23 10° E
Cosmos 405 Rocket 2.8 20:49:21 35° SSE 20:50:33 50° E 20:54:11 10° NNE
Cosmos 1140 Rocket 3.7 20:46:27 10° SSW 20:51:42 73° WNW 20:56:58 10° NNE
ATLAS 5 CENTAUR R/B 4.2 20:47:26 10° WNW 20:51:51 22° WSW 20:56:42 10° SSW
Cosmos 2333 Rocket 4.4 20:50:01 10° N 20:53:53 18° NNE 20:57:45 10° ENE
USA 32 4.1 20:53:02 14° S 20:57:32 79° W 21:02:49 10° N
Cosmos 1697 Rocket 4.0 20:53:51 10° NW 20:58:45 32° WSW 21:03:04 13° SSW
Cosmos 1633 Rocket 4.0 20:55:55 10° SSW 21:00:12 48° WNW 21:04:31 10° N
Cosmos 1833 Rocket 3.4 20:55:33 10° SW 21:01:03 54° NW 21:06:35 10° NNE
Meteor 1-18 Rocket 4.2 21:01:08 10° NNW 21:06:47 89° W 21:09:50 28° S
Okean 1-7 3.0 21:02:39 10° N 21:07:00 67° ENE 21:08:30 39° SSE
Cosmos 1153 Rocket 4.4 21:03:26 23° S 21:07:19 69° E 21:13:28 10° NNE
Cosmos 1867 3.5 21:01:58 10° SSW 21:07:24 81° SE 21:12:53 10° NE
CENTAUR R/B 2.9 21:04:46 26° SSE 21:07:32 40° ESE 21:13:56 10° NE
Resurs 01 Rocket 4.2 21:07:51 10° WSW 21:10:24 15° W 21:12:56 10° NW
Okean 3 4.4 21:09:01 10° N 21:12:58 34° ENE 21:13:59 30° ESE
FALCON 9 DEB 3.0 21:11:09 10° SW 21:14:37 65° SSE 21:15:22 48° E
Cosmos 1850 Rocket 4.2 21:14:18 33° SSE 21:16:22 51° ESE 21:21:28 10° NNE
Meteor 2-4 Rocket 3.8 21:10:46 10° N 21:16:28 65° ENE 21:18:53 34° SE
Cosmos 1515 3.6 21:13:33 10° N 21:17:25 90° W 21:18:22 49° S
SL-27 R/B 3.9 21:19:37 23° ENE 21:19:37 23° ENE 21:21:25 10° NE
Cosmos 676 Rocket 4.4 21:15:19 10° SSW 21:20:37 67° WNW 21:25:58 10° NNE
Cosmos 44 3.8 21:16:05 10° NNW 21:20:50 54° NE 21:23:08 29° ESE
ATLAS 5 CENTAUR R/B 2.3 21:18:40 10° NW 21:21:10 52° NE 21:23:25 27° ESE
SWARM C 4.4 21:19:05 10° N 21:22:26 89° NNE 21:22:47 70° S
SWARM A 4.2 21:19:11 10° N 21:22:32 82° W 21:22:57 65° SSW
Meteor 1-25 Rocket 4.5 21:17:53 14° SSW 21:22:42 66° WNW 21:28:19 10° N
Cosmos 1470 Rocket 4.4 21:19:30 16° SSW 21:22:55 49° WNW 21:27:13 10° N
USA 267 3.6 21:24:01 10° ENE 21:30:31 69° NNW 21:37:01 10° WSW
Cosmos 921 Rocket 4.1 21:29:31 10° NW 21:33:23 35° WSW 21:34:51 27° SW
NOSS 3-2 (A) 3.3 21:27:41 10° SW 21:33:28 85° SE 21:40:10 10° NE
ERS-1 Rocket 4.2 21:36:09 19° SSW 21:39:00 34° W 21:43:34 10° NNW
NOSS 3-2 (C) 3.3 21:35:51 24° SSW 21:39:23 64° SE 21:45:54 10° NE
Cosmos 841 Rocket 3.5 21:35:04 10° NNW 21:40:19 75° ENE 21:42:01 43° SE
Cosmos 540 Rocket 3.5 21:36:33 10° NNW 21:41:45 74° ENE 21:43:22 44° SE
SL-16 R/B 2.2 21:36:32 10° NNW 21:42:14 79° WSW 21:44:17 41° SSE
Cosmos 468 Rocket 4.5 21:38:40 10° NNW 21:43:50 53° WSW 21:45:45 35° SSW
Lacrosse 5 1.8 21:39:07 10° WNW 21:44:12 72° SW 21:45:31 48° SSE
Cosmos 1741 Rocket 3.9 21:48:23 34° SSW 21:50:45 89° ESE 21:56:05 10° NNE
Cosmos 1570 Rocket 4.0 21:46:14 10° NNW 21:51:35 88° WSW 21:53:10 47° SSE
Tsikada Rocket 4.3 21:46:18 10° N 21:52:36 56° ENE 21:54:55 37° SE
Cosmos 2219 Rocket 3.6 21:48:15 10° NNW 21:53:16 31° NE 21:56:38 18° E
Cosmos 2208 Rocket 3.9 21:48:23 10° NNW 21:53:43 82° ENE 21:55:11 49° SSE
Cosmos 1814 Rocket 3.9 21:48:51 10° NNW 21:54:05 79° ENE 21:55:32 48° SE
Cosmos 2082 Rocket 3.6 21:49:11 10° WSW 21:54:30 39° NW 21:59:49 10° NNE
Cosmos 2084 Rocket 4.1 21:59:01 40° E 21:59:01 40° E 22:02:12 10° NE
Cosmos 2237 4.2 21:52:55 10° NNW 21:58:40 75° ENE 22:00:35 43° SE
Terra 3.2 22:00:02 23° SW 22:01:54 30° W 22:06:08 10° NNW
Cosmos 2322 Rocket 2.3 21:58:55 10° NNW 22:04:35 67° WSW 22:06:13 45° S
EO 1 Del DPAF 4.0 22:01:57 10° NNE 22:04:57 39° ENE 22:04:57 39° ENE
USA 234 4.4 22:06:06 24° SSW 22:07:47 27° SW 22:13:10 10° WNW
Cosmos 2100 Rocket 4.1 22:05:35 31° SSW 22:08:40 70° WNW 22:14:50 10° N
Cosmos 1437 Rocket 4.4 22:07:03 10° NW 22:10:11 24° W 22:10:50 23° WSW
Meteor 1-11 Rocket 3.7 22:09:09 49° SSE 22:10:39 71° E 22:16:23 10° NNE
Cosmos 1242 Rocket 3.1 22:08:54 10° N 22:12:07 51° NE 22:12:07 51° NE
Cosmos 1869 Rocket 4.2 22:13:01 38° SW 22:14:17 51° WNW 22:18:40 10° N
Cosmos 2360 Rocket 2.1 22:13:07 10° NNW 22:18:51 89° WSW 22:20:20 52° SSE
COSMOS 2428 3.7 22:14:26 10° NNW 22:19:50 40° NE 22:22:36 25° ESE
Geosat 4.4 22:20:48 45° SSW 22:21:40 50° WSW 22:26:34 10° NW
ATLAS 3B R/B 2.8 22:21:13 45° SSE 22:22:27 50° ESE 22:28:51 10° NE
Iridium 4 Rocket 3.9 22:21:45 37° WSW 22:22:46 43° W 22:26:50 10° N
Cosmos 2173 Rocket 4.4 22:21:11 29° SW 22:24:17 58° WNW 22:30:21 10° N
Cosmos 1500 4.3 22:25:10 33° W 22:25:43 35° WNW 22:29:12 10° N
CRYOSAT 2 4.4 22:20:52 10° N 22:25:46 76° W 22:26:46 56° SSW
Cosmos 1980 Rocket 4.5 22:24:03 10° WNW 22:26:17 12° W 22:28:31 10° WSW
ALOS 2 2.5 22:27:44 69° ESE 22:28:04 73° ENE 22:32:29 10° N
SL-4 R/B 2.8 22:24:46 10° W 22:27:13 37° W 22:27:13 37° W
Cosmos 1725 Rocket 3.9 22:27:19 44° S 22:29:30 89° W 22:35:53 10° N
USA 238 DEB 4.2 22:23:13 10° WSW 22:29:49 57° NW 22:36:44 10° NE
USA 238 4.2 22:23:20 10° WSW 22:29:55 58° NW 22:36:50 10° NE
Nimbus 7 Rocket 4.5 22:25:11 10° NNE 22:31:00 60° ESE 22:32:15 49° SSE
Cosmos 1674 Rocket 3.4 22:28:44 10° N 22:33:05 82° ENE 22:33:13 80° ESE
SL-08 R/B 4.4 22:32:19 45° SSW 22:34:22 81° W 22:40:30 10° N
Cosmos 1536 2.8 22:34:39 77° WNW 22:34:39 77° WNW 22:38:34 10° N
Cosmos 1666 3.1 22:37:32 56° WNW 22:37:32 56° WNW 22:41:05 10° N
Cosmos 1743 3.6 22:38:17 41° ENE 22:38:17 41° ENE 22:41:23 10° NNE
Cosmos 2333 Rocket 2.5 22:33:39 10° NNW 22:39:24 61° NE 22:41:19 40° ESE
Cosmos 1356 4.3 22:41:30 48° NW 22:41:30 48° NW 22:44:20 10° N
Cosmos 1271 Rocket 3.2 22:37:26 10° N 22:40:47 54° NE 22:40:47 54° NE
Cosmos 2016 Rocket 4.3 22:39:51 35° SW 22:42:30 63° WNW 22:48:51 10° N
Cosmos 2237 Rocket 3.9 22:38:33 10° NNW 22:43:24 28° NE 22:47:32 13° E
Cosmos 2061 Rocket 4.3 22:41:23 36° SW 22:43:54 61° WNW 22:50:04 10° N
Lacrosse 4 Rocket 2.6 22:45:23 32° ENE 22:45:23 32° ENE 22:48:12 10° NE
MOS 1-B Rocket 4.3 22:38:40 10° N 22:44:18 56° WNW 22:46:43 32° SW
Cosmos 1733 Rocket 3.2 22:50:59 61° WSW 22:51:19 63° WNW 22:55:42 10° N
Cosmos 1066 Rocket 4.4 22:46:54 10° NNW 22:52:35 62° W 22:53:46 50° SW
Meteor 2-11 Rocket 4.5 22:51:23 51° SSE 22:52:46 66° E 22:58:49 10° NNE
SL-27 R/B 4.4 22:53:08 21° WNW 22:53:37 22° WNW 22:56:18 10° N
Meteor 1-23 Rocket 4.4 22:48:38 10° NNW 22:54:24 63° W 22:55:43 50° SSW
Thor Agena Rocket 3.9 22:50:34 10° N 22:55:33 58° WNW 22:57:00 42° WSW
Cosmos 44 Rocket 3.9 22:50:54 10° NW 22:55:46 53° NE 22:57:31 36° E
Cosmos 836 Rocket 4.4 22:52:01 10° NNW 22:57:16 84° ENE 22:58:03 65° SE
CENTAUR R/B 3.1 22:51:50 10° WSW 22:57:56 59° NW 23:05:17 10° NE
Cosmos 968 Rocket 3.6 22:59:01 54° ESE 22:59:12 54° ESE 23:04:12 10° NNE
Cosmos 1975 3.8 23:02:22 38° ENE 23:02:22 38° ENE 23:05:39 10° NNE
Cosmos 44 4.5 22:57:35 10° WNW 23:01:33 31° WSW 23:01:33 31° WSW
SL-24 DEB 4.2 23:00:11 10° N 23:04:59 74° E 23:05:18 71° SE
Cosmos 1782 Rocket 4.1 23:10:37 47° E 23:10:37 47° E 23:14:37 10° NNE
USA 267 4.1 23:06:52 10° ENE 23:13:06 49° N 23:19:21 10° WNW
Cosmos 1378 4.1 23:09:33 10° NNW 23:12:29 41° WNW 23:12:29 41° WNW
Cosmos 1707 4.2 23:12:37 10° N 23:16:04 28° ENE 23:16:13 28° ENE
Cosmos 2233 Rocket 4.2 23:14:31 42° SW 23:16:34 64° WNW 23:22:53 10° N
Cosmos 1464 Rocket 4.2 23:15:36 46° SE 23:17:08 57° E 23:23:12 10° NNE
Cosmos 1842 3.5 23:14:08 10° N 23:17:41 66° NNE 23:17:41 66° NNE
Cosmos 1908 Rocket 3.5 23:18:33 83° WNW 23:18:33 83° WNW 23:22:56 10° N
Helios 1B rocket 3.9 23:18:38 10° NE 23:21:48 27° E 23:21:48 27° E
Cosmos 2227 Rocket 4.1 23:22:42 15° ESE 23:23:27 16° E 23:26:43 10° ENE
Meteor 1-21 4.3 23:18:09 10° N 23:24:00 77° ENE 23:25:21 54° SSE
SL-16 R/B 4.2 23:22:34 10° WNW 23:25:24 14° W 23:26:08 14° WSW
Lacrosse 5 3.9 23:23:10 10° W 23:24:41 15° W 23:24:41 15° W
Cosmos 2322 3.9 23:23:33 10° NW 23:29:01 50° WSW 23:29:31 49° SW
Cosmos 1833 4.5 23:28:45 41° WSW 23:30:37 62° WNW 23:36:16 10° NNE
COSMOS 2487 3.7 23:32:14 36° NW 23:32:14 36° NW 23:35:01 10° N
Nadezhda 4 Rocket 4.1 23:29:44 10° N 23:36:04 68° ENE 23:38:03 44° SE
Cosmos 2219 Rocket 2.2 23:32:00 10° NW 23:37:38 61° WSW 23:38:19 57° SSW
Cosmos 783 Rocket 4.4 23:36:19 10° NNW 23:41:35 87° WSW 23:42:23 66° SSE
Cosmos 1975 Rocket 3.0 23:37:55 10° NNW 23:42:24 73° W 23:42:24 73° W
Cosmos 1513 Rocket 4.5 23:42:38 51° S 23:44:24 89° ESE 23:50:53 10° N
Okean 2 Rocket 3.7 23:45:22 44° E 23:45:33 45° E 23:49:51 10° NNE
Cosmos 2034 Rocket 4.1 23:43:53 48° SSE 23:45:36 67° E 23:51:52 10° NNE
Cosmos 1503 Rocket 3.9 23:45:55 64° SSW 23:46:48 88° ESE 23:52:13 10° NNE
Cosmos 2322 Rocket 4.4 23:45:47 10° WNW 23:47:31 11° W 23:48:01 11° W
YAOGAN 11 4.5 23:48:26 53° W 23:48:26 53° W 23:52:55 10° NNW
Cosmos 1072 Rocket 4.4 23:46:51 53° SSW 23:48:25 82° W 23:54:35 10° N
Helios 1A 3.8 23:49:48 40° W 23:49:48 40° W 23:53:23 10° NNW
Landsat 4 4.0 23:45:51 10° NNE 23:49:12 67° NNE 23:49:12 67° NNE
Cosmos 1092 Rocket 4.4 23:44:05 10° N 23:50:15 56° ENE 23:52:45 34° SE
SL-16 R/B 3.7 23:46:15 17° ESE 23:50:38 39° ENE 23:56:22 10° N
ERBS 3.8 23:48:52 10° NW 23:51:02 33° NNW 23:51:02 33° NNW
Cosmos 1300 Rocket 4.0 23:52:28 47° E 23:52:33 48° E 23:56:42 10° NNE
CZ-2D R/B 3.9 23:48:49 10° NE 23:53:01 22° E 23:54:54 19° ESE
SL-16 R/B 3.7 23:48:29 10° NNW 23:53:40 34° NE 23:58:48 10° ESE
Cosmos 1544 4.2 23:54:38 38° NW 23:54:38 38° NW 23:57:40 10° N
